Orbital Elements at Epoch 2459200.5 (2020-Dec-17.0) TDB
Reference: JPL 24 (heliocentric ecliptic J2000)
Element | Value | Uncertainty (1-sigma) | Units |
e | .1567622528135241 | 3.5649e-08 | |
a | 2.405606774175884 | 8.8102e-09 | au |
q | 2.028498436872598 | 8.484e-08 | au |
i | 3.781192815209823 | 3.8221e-06 | deg |
node | 31.12990025089976 | 6.7585e-05 | deg |
peri | 40.55880871746133 | 6.9063e-05 | deg |
M | 138.3746630872907 | 1.4429e-05 | deg |
tp | 2458676.671094452479 (2019-Jul-12.17109445) | 5.3919e-05 | TDB |
period | 1362.810226884866 3.73 | 7.4867e-06 2.05e-08 | d yr |
n | .2641600370309034 | 1.4512e-09 | deg/d |
Q | 2.78271511147917 | 1.0191e-08 | au |
|
| | Orbit Determination Parameters
Additional Information
|